TimeCST,TemperatureF,Dew PointF,Humidity,Sea Level PressureIn,VisibilityMPH,Wind Direction,Wind SpeedMPH,Gust SpeedMPH,PrecipitationIn,Events,Conditions,WindDirDegrees,DateUTC
12:15 AM,24.6,23.2,94,30.46,10.0,Calm,Calm,-,N/A,,Clear,0,2012-11-16 06:15:00
12:35 AM,23.5,22.1,94,30.47,10.0,Calm,Calm,-,N/A,,Clear,0,2012-11-16 06:35:00
12:55 AM,21.0,19.4,93,30.46,10.0,Calm,Calm,-,N/A,,Clear,0,2012-11-16 06:55:00
1:15 AM,21.0,19.4,93,30.46,10.0,Calm,Calm,-,N/A,,Clear,0,2012-11-16 07:15:00
1:35 AM,21.7,20.1,93,30.47,10.0,Calm,Calm,-,N/A,,Clear,0,2012-11-16 07:35:00
1:55 AM,19.9,18.3,93,30.46,10.0,Calm,Calm,-,N/A,,Clear,0,2012-11-16 07:55:00
2:15 AM,20.7,19.2,94,30.46,10.0,Calm,Calm,-,N/A,,Clear,0,2012-11-16 08:15:00
2:35 AM,20.5,19.0,94,30.46,10.0,Calm,Calm,-,N/A,,Clear,0,2012-11-16 08:35:00
2:55 AM,20.1,18.9,95,30.46,10.0,Calm,Calm,-,N/A,,Clear,0,2012-11-16 08:55:00
3:15 AM,18.0,16.7,95,30.46,10.0,Calm,Calm,-,N/A,,Clear,0,2012-11-16 09:15:00
3:35 AM,18.3,16.7,93,30.45,10.0,Calm,Calm,-,N/A,,Clear,0,2012-11-16 09:35:00
3:55 AM,18.9,17.4,94,30.44,10.0,Calm,Calm,-,N/A,,Clear,0,2012-11-16 09:55:00
4:15 AM,18.9,17.1,93,30.44,10.0,Calm,Calm,-,N/A,,Clear,0,2012-11-16 10:15:00
4:35 AM,18.0,16.5,94,30.43,10.0,Calm,Calm,-,N/A,,Clear,0,2012-11-16 10:35:00
4:55 AM,16.7,15.1,93,30.43,10.0,Calm,Calm,-,N/A,,Clear,0,2012-11-16 10:55:00
5:15 AM,16.9,15.3,93,30.42,10.0,Calm,Calm,-,N/A,,Clear,0,2012-11-16 11:15:00
5:35 AM,17.1,15.3,93,30.42,10.0,Calm,Calm,-,N/A,,Clear,0,2012-11-16 11:35:00
5:55 AM,17.1,15.1,92,30.42,10.0,Calm,Calm,-,N/A,,Clear,0,2012-11-16 11:55:00
6:15 AM,17.2,15.4,93,30.42,10.0,Calm,Calm,-,N/A,,Clear,0,2012-11-16 12:15:00
6:35 AM,15.8,13.8,92,30.42,10.0,Calm,Calm,-,N/A,,Clear,0,2012-11-16 12:35:00
6:55 AM,15.8,13.8,92,30.42,10.0,Calm,Calm,-,N/A,,Clear,0,2012-11-16 12:55:00
7:15 AM,16.5,14.5,92,30.42,10.0,Calm,Calm,-,N/A,,Clear,0,2012-11-16 13:15:00
7:35 AM,16.2,14.0,91,30.43,10.0,Calm,Calm,-,N/A,,Clear,0,2012-11-16 13:35:00
7:55 AM,17.2,14.9,91,30.43,10.0,Calm,Calm,-,N/A,,Clear,0,2012-11-16 13:55:00
8:15 AM,19.4,17.4,92,30.44,10.0,Calm,Calm,-,N/A,,Clear,0,2012-11-16 14:15:00
8:35 AM,22.1,19.9,91,30.44,10.0,Calm,Calm,-,N/A,,Clear,0,2012-11-16 14:35:00
8:55 AM,25.7,22.6,88,30.44,10.0,Calm,Calm,-,N/A,,Clear,0,2012-11-16 14:55:00
9:15 AM,29.1,25.3,86,30.44,10.0,South,5.8,-,N/A,,Clear,180,2012-11-16 15:15:00
9:35 AM,32.4,25.9,77,30.44,10.0,South,8.1,-,N/A,,Clear,180,2012-11-16 15:35:00
9:55 AM,34.0,26.4,74,30.43,10.0,South,6.9,-,N/A,,Clear,170,2012-11-16 15:55:00
10:15 AM,36.5,28.2,72,30.43,10.0,South,9.2,-,N/A,,Clear,180,2012-11-16 16:15:00
10:35 AM,38.3,27.9,66,30.43,10.0,South,10.4,-,N/A,,Clear,180,2012-11-16 16:35:00
10:55 AM,39.9,27.3,61,30.43,10.0,South,10.4,-,N/A,,Clear,180,2012-11-16 16:55:00
11:15 AM,41.9,27.5,57,30.42,10.0,South,9.2,-,N/A,,Clear,170,2012-11-16 17:15:00
11:35 AM,44.1,28.9,55,30.41,10.0,South,9.2,-,N/A,,Clear,180,2012-11-16 17:35:00
11:55 AM,45.7,29.7,54,30.39,10.0,South,12.7,-,N/A,,Clear,180,2012-11-16 17:55:00
12:15 PM,47.7,30.6,52,30.38,10.0,South,13.8,-,N/A,,Clear,180,2012-11-16 18:15:00
12:35 PM,48.6,30.9,51,30.36,10.0,SSE,15.0,19.6,N/A,,Clear,160,2012-11-16 18:35:00
12:55 PM,49.6,31.1,49,30.35,10.0,South,11.5,-,N/A,,Clear,170,2012-11-16 18:55:00
1:15 PM,50.9,31.3,47,30.33,10.0,SSE,12.7,-,N/A,,Clear,150,2012-11-16 19:15:00
1:35 PM,52.0,31.3,45,30.32,10.0,South,12.7,-,N/A,,Clear,180,2012-11-16 19:35:00
1:55 PM,52.3,31.1,44,30.31,10.0,South,16.1,20.7,N/A,,Clear,170,2012-11-16 19:55:00
2:15 PM,53.1,31.3,43,30.30,10.0,SSE,17.3,-,N/A,,Clear,160,2012-11-16 20:15:00
2:35 PM,53.4,31.1,43,30.30,10.0,South,18.4,-,N/A,,Clear,170,2012-11-16 20:35:00
2:55 PM,53.2,31.6,44,30.29,10.0,South,16.1,-,N/A,,Clear,170,2012-11-16 20:55:00
3:15 PM,53.2,31.6,44,30.29,10.0,South,16.1,-,N/A,,Clear,180,2012-11-16 21:15:00
3:35 PM,53.4,32.0,44,30.29,10.0,South,16.1,-,N/A,,Clear,180,2012-11-16 21:35:00
3:55 PM,52.7,32.0,45,30.28,10.0,SSE,15.0,20.7,N/A,,Clear,160,2012-11-16 21:55:00
4:15 PM,52.0,32.0,47,30.27,10.0,SSE,16.1,20.7,N/A,,Clear,160,2012-11-16 22:15:00
4:35 PM,50.9,32.0,48,30.27,10.0,South,16.1,-,N/A,,Clear,170,2012-11-16 22:35:00
4:55 PM,48.6,32.0,53,30.27,10.0,SSE,10.4,-,N/A,,Clear,160,2012-11-16 22:55:00
5:15 PM,46.4,32.0,57,30.26,10.0,SSE,11.5,-,N/A,,Clear,150,2012-11-16 23:15:00
5:35 PM,45.3,32.0,60,30.26,10.0,SSE,12.7,-,N/A,,Clear,150,2012-11-16 23:35:00
5:55 PM,45.1,32.0,60,30.25,10.0,SSE,13.8,-,N/A,,Clear,150,2012-11-16 23:55:00
6:15 PM,44.6,32.0,61,30.25,10.0,SSE,13.8,-,N/A,,Clear,150,2012-11-17 00:15:00
6:35 PM,43.9,32.0,63,30.25,10.0,SSE,12.7,-,N/A,,Clear,150,2012-11-17 00:35:00
6:55 PM,43.7,32.0,63,30.25,10.0,SSE,12.7,-,N/A,,Clear,150,2012-11-17 00:55:00
7:15 PM,43.7,31.8,63,30.25,10.0,SSE,12.7,-,N/A,,Clear,150,2012-11-17 01:15:00
7:35 PM,42.1,31.6,67,30.24,10.0,SSE,15.0,-,N/A,,Clear,150,2012-11-17 01:35:00
7:55 PM,42.4,31.8,66,30.24,10.0,SSE,12.7,-,N/A,,Clear,150,2012-11-17 01:55:00
8:15 PM,41.9,32.0,68,30.23,10.0,SSE,12.7,-,N/A,,Clear,150,2012-11-17 02:15:00
8:35 PM,43.3,32.0,64,30.24,10.0,South,11.5,-,N/A,,Clear,170,2012-11-17 02:35:00
8:55 PM,41.9,32.0,68,30.24,10.0,SSE,9.2,-,N/A,,Clear,160,2012-11-17 02:55:00
9:15 PM,41.7,32.4,69,30.24,10.0,South,12.7,-,N/A,,Clear,180,2012-11-17 03:15:00
9:35 PM,42.3,32.4,68,30.24,10.0,South,15.0,-,N/A,,Clear,180,2012-11-17 03:35:00
9:55 PM,41.4,32.2,70,30.24,10.0,South,12.7,-,N/A,,Clear,180,2012-11-17 03:55:00
10:15 PM,40.6,32.2,72,30.25,10.0,South,11.5,-,N/A,,Clear,180,2012-11-17 04:15:00
10:35 PM,40.1,32.5,74,30.25,10.0,South,10.4,-,N/A,,Clear,170,2012-11-17 04:35:00
10:55 PM,40.1,32.7,75,30.24,10.0,South,9.2,-,N/A,,Clear,170,2012-11-17 04:55:00
11:15 PM,39.6,32.7,76,30.24,10.0,South,11.5,-,N/A,,Clear,170,2012-11-17 05:15:00
11:35 PM,39.2,32.9,78,30.24,10.0,South,12.7,-,N/A,,Clear,170,2012-11-17 05:35:00
11:55 PM,38.8,32.9,79,30.24,10.0,South,12.7,-,N/A,,Clear,170,2012-11-17 05:55:00